Time,TemperatureF,DewpointF,PressureIn,WindDirection,WindDirectionDegrees,WindSpeedMPH,WindSpeedGustMPH,Humidity,HourlyPrecipIn,Conditions,Clouds,dailyrainin,SoftwareType,DateUTC
2013-02-16 00:09:00,13.4,7.0,30.20,WNW,295,2.0,4.0,75,0.00,,,0.00,weatherlink.com 1.10,2013-02-16 06:09:00,
2013-02-16 00:24:00,13.2,7.0,30.20,NNW,329,1.0,4.0,75,0.00,,,0.00,weatherlink.com 1.10,2013-02-16 06:24:00,
2013-02-16 00:39:00,13.0,7.0,30.20,NW,306,2.0,4.0,76,0.00,,,0.00,weatherlink.com 1.10,2013-02-16 06:39:00,
2013-02-16 00:54:00,12.7,6.0,30.20,NW,306,1.0,4.0,75,0.00,,,0.00,weatherlink.com 1.10,2013-02-16 06:54:00,
2013-02-16 01:09:00,12.6,6.0,30.20,WNW,292,3.0,5.0,75,0.00,,,0.00,weatherlink.com 1.10,2013-02-16 07:09:00,
2013-02-16 01:24:00,12.5,6.0,30.20,WNW,288,2.0,5.0,75,0.00,,,0.00,weatherlink.com 1.10,2013-02-16 07:24:00,
2013-02-16 01:39:00,12.5,6.0,30.20,NW,322,3.0,4.0,75,0.00,,,0.00,weatherlink.com 1.10,2013-02-16 07:39:00,
2013-02-16 01:54:00,12.2,6.0,30.20,NW,304,1.0,5.0,76,0.00,,,0.00,weatherlink.com 1.10,2013-02-16 07:54:00,
2013-02-16 02:10:00,12.1,6.0,30.19,WNW,299,3.0,4.0,77,0.00,,,0.00,weatherlink.com 1.10,2013-02-16 08:10:00,
2013-02-16 02:25:00,12.0,6.0,30.19,NW,306,2.0,5.0,78,0.00,,,0.00,weatherlink.com 1.10,2013-02-16 08:25:00,
2013-02-16 02:40:00,11.9,6.0,30.19,WNW,300,1.0,5.0,78,0.00,,,0.00,weatherlink.com 1.10,2013-02-16 08:40:00,
2013-02-16 02:55:00,11.8,6.0,30.18,NW,322,0.0,5.0,78,0.00,,,0.00,weatherlink.com 1.10,2013-02-16 08:55:00,
2013-02-16 03:10:00,11.7,6.0,30.18,WNW,296,0.0,3.0,78,0.00,,,0.00,weatherlink.com 1.10,2013-02-16 09:10:00,
2013-02-16 03:25:00,11.6,6.0,30.18,NW,323,3.0,4.0,78,0.00,,,0.00,weatherlink.com 1.10,2013-02-16 09:25:00,
2013-02-16 03:40:00,11.4,6.0,30.18,NW,314,1.0,4.0,78,0.00,,,0.00,weatherlink.com 1.10,2013-02-16 09:40:00,
2013-02-16 03:55:00,11.3,6.0,30.17,WNW,296,1.0,3.0,79,0.00,,,0.00,weatherlink.com 1.10,2013-02-16 09:55:00,
2013-02-16 04:10:00,11.2,6.0,30.17,NNW,331,1.0,2.0,79,0.00,,,0.00,weatherlink.com 1.10,2013-02-16 10:10:00,
2013-02-16 04:25:00,11.1,6.0,30.18,NW,320,1.0,3.0,79,0.00,,,0.00,weatherlink.com 1.10,2013-02-16 10:25:00,
2013-02-16 04:40:00,11.1,6.0,30.18,NW,318,0.0,2.0,80,0.00,,,0.00,weatherlink.com 1.10,2013-02-16 10:40:00,
2013-02-16 04:55:00,11.1,6.0,30.17,WNW,301,2.0,2.0,80,0.00,,,0.00,weatherlink.com 1.10,2013-02-16 10:55:00,
2013-02-16 05:10:00,11.0,6.0,30.17,WNW,303,0.0,3.0,80,0.00,,,0.00,weatherlink.com 1.10,2013-02-16 11:10:00,
2013-02-16 05:25:00,11.1,6.0,30.17,WNW,302,0.0,0.0,81,0.00,,,0.00,weatherlink.com 1.10,2013-02-16 11:25:00,
2013-02-16 05:40:00,11.1,6.0,30.16,WNW,294,0.0,2.0,81,0.00,,,0.00,weatherlink.com 1.10,2013-02-16 11:40:00,
2013-02-16 05:55:00,11.0,6.0,30.17,WNW,291,0.0,2.0,81,0.00,,,0.00,weatherlink.com 1.10,2013-02-16 11:55:00,
2013-02-16 06:10:00,10.9,6.0,30.16,WNW,291,0.0,2.0,82,0.00,,,0.00,weatherlink.com 1.10,2013-02-16 12:10:00,
2013-02-16 06:25:00,10.8,6.0,30.16,West,272,2.0,3.0,82,0.00,,,0.00,weatherlink.com 1.10,2013-02-16 12:25:00,
2013-02-16 06:40:00,10.8,7.0,30.16,West,272,1.0,2.0,83,0.00,,,0.00,weatherlink.com 1.10,2013-02-16 12:40:00,
2013-02-16 06:55:00,10.7,6.0,30.17,WNW,292,1.0,2.0,82,0.00,,,0.00,weatherlink.com 1.10,2013-02-16 12:55:00,
2013-02-16 07:10:00,10.8,7.0,30.17,WNW,290,2.0,2.0,83,0.00,,,0.00,weatherlink.com 1.10,2013-02-16 13:10:00,
2013-02-16 07:25:00,10.9,7.0,30.17,WNW,290,1.0,3.0,83,0.00,,,0.00,weatherlink.com 1.10,2013-02-16 13:25:00,
2013-02-16 07:40:00,11.2,7.0,30.17,SW,232,2.0,4.0,82,0.00,,,0.00,weatherlink.com 1.10,2013-02-16 13:40:00,
2013-02-16 07:55:00,11.7,7.0,30.17,West,270,2.0,3.0,82,0.00,,,0.00,weatherlink.com 1.10,2013-02-16 13:55:00,
2013-02-16 08:10:00,12.2,7.0,30.18,WNW,297,1.0,5.0,80,0.00,,,0.00,weatherlink.com 1.10,2013-02-16 14:10:00,
2013-02-16 08:25:00,13.0,8.0,30.18,WNW,302,2.0,4.0,79,0.00,,,0.00,weatherlink.com 1.10,2013-02-16 14:25:00,
2013-02-16 08:40:00,13.4,7.0,30.18,WNW,283,2.0,5.0,77,0.00,,,0.00,weatherlink.com 1.10,2013-02-16 14:40:00,
2013-02-16 08:55:00,14.1,8.0,30.18,WNW,288,2.0,6.0,76,0.00,,,0.00,weatherlink.com 1.10,2013-02-16 14:55:00,
2013-02-16 09:10:00,14.1,7.0,30.18,NW,325,2.0,7.0,74,0.00,,,0.00,weatherlink.com 1.10,2013-02-16 15:10:00,
2013-02-16 09:25:00,14.3,7.0,30.18,NW,323,4.0,7.0,74,0.00,,,0.00,weatherlink.com 1.10,2013-02-16 15:25:00,
2013-02-16 09:40:00,14.1,7.0,30.18,NW,319,1.0,8.0,74,0.00,,,0.00,weatherlink.com 1.10,2013-02-16 15:40:00,
2013-02-16 09:55:00,14.3,8.0,30.18,WNW,286,4.0,6.0,76,0.00,,,0.00,weatherlink.com 1.10,2013-02-16 15:55:00,
2013-02-16 10:10:00,15.1,8.0,30.18,West,279,3.0,7.0,74,0.00,,,0.00,weatherlink.com 1.10,2013-02-16 16:10:00,
2013-02-16 10:25:00,15.3,8.0,30.18,NW,314,3.0,7.0,72,0.00,,,0.00,weatherlink.com 1.10,2013-02-16 16:25:00,
2013-02-16 10:40:00,15.5,8.0,30.18,NW,308,4.0,6.0,73,0.00,,,0.00,weatherlink.com 1.10,2013-02-16 16:40:00,
2013-02-16 10:55:00,15.6,9.0,30.18,WNW,301,1.0,5.0,74,0.00,,,0.00,weatherlink.com 1.10,2013-02-16 16:55:00,
2013-02-16 11:10:00,15.3,8.0,30.18,West,268,4.0,8.0,72,0.00,,,0.00,weatherlink.com 1.10,2013-02-16 17:10:00,
2013-02-16 11:25:00,15.3,7.0,30.17,NNW,341,4.0,8.0,71,0.00,,,0.00,weatherlink.com 1.10,2013-02-16 17:25:00,
2013-02-16 11:40:00,16.0,9.0,30.17,NNW,329,6.0,7.0,73,0.00,,,0.00,weatherlink.com 1.10,2013-02-16 17:40:00,
2013-02-16 11:55:00,16.1,7.0,30.16,WNW,298,3.0,7.0,66,0.00,,,0.00,weatherlink.com 1.10,2013-02-16 17:55:00,
2013-02-16 12:10:00,16.0,7.0,30.16,NW,312,4.0,6.0,67,0.00,,,0.00,weatherlink.com 1.10,2013-02-16 18:10:00,
2013-02-16 12:25:00,15.8,7.0,30.16,WNW,303,4.0,8.0,69,0.00,,,0.00,weatherlink.com 1.10,2013-02-16 18:25:00,
2013-02-16 12:40:00,16.8,8.0,30.15,WNW,286,3.0,5.0,68,0.00,,,0.00,weatherlink.com 1.10,2013-02-16 18:40:00,
2013-02-16 12:55:00,15.9,8.0,30.15,WNW,293,2.0,7.0,70,0.00,,,0.00,weatherlink.com 1.10,2013-02-16 18:55:00,
2013-02-16 13:10:00,16.4,8.0,30.15,WNW,286,4.0,8.0,69,0.00,,,0.00,weatherlink.com 1.10,2013-02-16 19:10:00,
2013-02-16 13:25:00,16.9,7.0,30.15,WNW,296,2.0,7.0,66,0.00,,,0.00,weatherlink.com 1.10,2013-02-16 19:25:00,
2013-02-16 13:40:00,17.0,7.0,30.14,WNW,296,3.0,6.0,66,0.00,,,0.00,weatherlink.com 1.10,2013-02-16 19:40:00,
2013-02-16 13:56:00,17.4,7.0,30.15,NW,305,4.0,6.0,65,0.00,,,0.00,weatherlink.com 1.10,2013-02-16 19:56:00,
2013-02-16 14:11:00,18.0,9.0,30.14,WNW,302,3.0,7.0,68,0.00,,,0.00,weatherlink.com 1.10,2013-02-16 20:11:00,
2013-02-16 14:26:00,17.5,7.0,30.14,NNW,341,3.0,7.0,64,0.00,,,0.00,weatherlink.com 1.10,2013-02-16 20:26:00,
2013-02-16 14:41:00,19.1,9.0,30.14,WSW,247,2.0,7.0,64,0.00,,,0.00,weatherlink.com 1.10,2013-02-16 20:41:00,
2013-02-16 14:56:00,18.9,8.0,30.14,WSW,257,1.0,7.0,63,0.00,,,0.00,weatherlink.com 1.10,2013-02-16 20:56:00,
2013-02-16 15:11:00,18.8,7.0,30.14,NW,317,4.0,6.0,60,0.00,,,0.00,weatherlink.com 1.10,2013-02-16 21:11:00,
2013-02-16 15:26:00,18.2,6.0,30.15,WNW,294,7.0,7.0,59,0.00,,,0.00,weatherlink.com 1.10,2013-02-16 21:26:00,
2013-02-16 15:41:00,18.1,7.0,30.14,NW,311,2.0,6.0,63,0.00,,,0.00,weatherlink.com 1.10,2013-02-16 21:41:00,
2013-02-16 15:56:00,18.2,7.0,30.14,NW,321,2.0,5.0,61,0.00,,,0.00,weatherlink.com 1.10,2013-02-16 21:56:00,
2013-02-16 16:11:00,18.0,7.0,30.14,North,351,3.0,6.0,61,0.00,,,0.00,weatherlink.com 1.10,2013-02-16 22:11:00,
2013-02-16 16:26:00,18.0,7.0,30.14,NNW,340,3.0,8.0,62,0.00,,,0.00,weatherlink.com 1.10,2013-02-16 22:26:00,
2013-02-16 16:41:00,17.9,7.0,30.14,WNW,296,3.0,6.0,63,0.00,,,0.00,weatherlink.com 1.10,2013-02-16 22:41:00,
2013-02-16 16:56:00,17.6,7.0,30.15,North,355,3.0,5.0,62,0.00,,,0.00,weatherlink.com 1.10,2013-02-16 22:56:00,
2013-02-16 17:11:00,17.1,6.0,30.15,NW,309,3.0,5.0,63,0.00,,,0.00,weatherlink.com 1.10,2013-02-16 23:11:00,
2013-02-16 17:26:00,16.6,6.0,30.15,NW,321,0.0,4.0,64,0.00,,,0.00,weatherlink.com 1.10,2013-02-16 23:26:00,
2013-02-16 17:41:00,16.2,7.0,30.16,NNW,348,0.0,2.0,66,0.00,,,0.00,weatherlink.com 1.10,2013-02-16 23:41:00,
2013-02-16 17:56:00,15.8,7.0,30.16,North,355,0.0,2.0,67,0.00,,,0.00,weatherlink.com 1.10,2013-02-16 23:56:00,
2013-02-16 18:11:00,15.4,7.0,30.17,North,355,0.0,1.0,70,0.00,,,0.00,weatherlink.com 1.10,2013-02-17 00:11:00,
2013-02-16 18:26:00,15.0,7.0,30.17,North,355,0.0,1.0,70,0.00,,,0.00,weatherlink.com 1.10,2013-02-17 00:26:00,
2013-02-16 18:41:00,14.6,7.0,30.17,North,355,0.0,0.0,72,0.00,,,0.00,weatherlink.com 1.10,2013-02-17 00:41:00,
2013-02-16 18:56:00,14.0,7.0,30.17,North,355,0.0,0.0,72,0.00,,,0.00,weatherlink.com 1.10,2013-02-17 00:56:00,
2013-02-16 19:11:00,13.5,6.0,30.18,North,355,0.0,0.0,73,0.00,,,0.00,weatherlink.com 1.10,2013-02-17 01:11:00,
2013-02-16 19:26:00,13.1,6.0,30.17,North,355,0.0,0.0,74,0.00,,,0.00,weatherlink.com 1.10,2013-02-17 01:26:00,
2013-02-16 19:41:00,13.0,6.0,30.18,North,355,0.0,0.0,73,0.00,,,0.00,weatherlink.com 1.10,2013-02-17 01:41:00,
2013-02-16 19:56:00,12.9,6.0,30.18,North,355,0.0,0.0,73,0.00,,,0.00,weatherlink.com 1.10,2013-02-17 01:56:00,
2013-02-16 20:11:00,13.1,7.0,30.18,North,355,0.0,0.0,77,0.00,,,0.00,weatherlink.com 1.10,2013-02-17 02:11:00,
2013-02-16 20:26:00,12.8,6.0,30.18,North,355,0.0,0.0,73,0.00,,,0.00,weatherlink.com 1.10,2013-02-17 02:26:00,
2013-02-16 20:41:00,12.8,5.0,30.17,North,355,0.0,0.0,72,0.00,,,0.00,weatherlink.com 1.10,2013-02-17 02:41:00,
2013-02-16 20:56:00,12.6,5.0,30.18,North,355,0.0,0.0,72,0.00,,,0.00,weatherlink.com 1.10,2013-02-17 02:56:00,
2013-02-16 21:11:00,12.7,5.0,30.18,North,355,0.0,2.0,72,0.00,,,0.00,weatherlink.com 1.10,2013-02-17 03:11:00,
2013-02-16 21:26:00,12.4,6.0,30.18,North,355,0.0,0.0,75,0.00,,,0.00,weatherlink.com 1.10,2013-02-17 03:26:00,
2013-02-16 21:41:00,12.1,6.0,30.18,North,355,0.0,1.0,76,0.00,,,0.00,weatherlink.com 1.10,2013-02-17 03:41:00,
2013-02-16 21:56:00,12.0,6.0,30.18,North,5,0.0,1.0,77,0.00,,,0.00,weatherlink.com 1.10,2013-02-17 03:56:00,
2013-02-16 22:11:00,11.9,5.0,30.18,NNE,23,0.0,2.0,75,0.00,,,0.00,weatherlink.com 1.10,2013-02-17 04:11:00,
2013-02-16 22:26:00,11.8,5.0,30.18,NNE,23,0.0,1.0,74,0.00,,,0.00,weatherlink.com 1.10,2013-02-17 04:26:00,
2013-02-16 22:41:00,11.7,5.0,30.18,NE,42,0.0,2.0,74,0.00,,,0.00,weatherlink.com 1.10,2013-02-17 04:41:00,
2013-02-16 22:56:00,11.6,5.0,30.18,NE,44,0.0,1.0,74,0.00,,,0.00,weatherlink.com 1.10,2013-02-17 04:56:00,
2013-02-16 23:11:00,11.5,4.0,30.18,NE,44,1.0,2.0,73,0.00,,,0.00,weatherlink.com 1.10,2013-02-17 05:11:00,
2013-02-16 23:26:00,11.4,5.0,30.18,NE,44,0.0,0.0,76,0.00,,,0.00,weatherlink.com 1.10,2013-02-17 05:26:00,
2013-02-16 23:41:00,11.0,5.0,30.18,NE,44,0.0,0.0,75,0.00,,,0.00,weatherlink.com 1.10,2013-02-17 05:41:00,
2013-02-16 23:56:00,10.8,4.0,30.18,NE,44,0.0,0.0,75,0.00,,,0.00,weatherlink.com 1.10,2013-02-17 05:56:00,